Location: *
(45.9500°N, 9.0833°E)
Time: 20:55:22
(UTC+00:00)

Tiros 1 - Pass Details

Date: 18 June 2021
Orbit: 630 x 664 km, 48.4° (Epoch: 05 August)

Event Time Altitude Azimuth Distance (km) Brightness Sun altitude
Rises 08:40:38 0° 189° (S) 2,906 10.6 50.1°
Reaches altitude 10° 08:44:04 10° 162° (SSE) 2,008 10.2 50.6°
Maximum altitude 08:46:15 13° 134° (SE) 1,803 10.3 51.0°
Drops below altitude 10° 08:48:28 10° 105° (ESE) 2,023 10.6 51.3°
Sets 08:51:55 0° 79° (E) 2,944 11.0 51.9°
